Weather History for KWLD - March, 2013

Change the Weather History Date:

Monday, March 11, 2013

  Actual Average Record
Temperature  
Mean Temperature 36 °F -  
Max Temperature 50 °F 53 °F 79 °F (2014)
Min Temperature 24 °F 31 °F 12 °F (1998)
Degree Days  
Heating Degree Days 29    
Moisture  
Dew Point 20 °F    
Average Humidity 58    
Maximum Humidity 81    
Minimum Humidity 26    
Precipitation  
Precipitation 0.00 in - - ()
Sea Level Pressure  
Sea Level Pressure 30.03 in    
Wind  
Wind Speed 11 mph (NW)    
Max Wind Speed 17 mph    
Max Gust Speed 31 mph    
Visibility 10 miles    
Events      
Averages and records for this station are not official NWS values.
T = Trace of Precipitation, MM = Missing Value Source: NWS Daily Summary

Daily Weather History Graph

Daily Weather History Graph

Search for Another Location

Airport or City:

Trip Planner

Search our weather history database for the weather conditions in past years. The results will help you decide how hot, cold, wet, or windy it might be!

Date:

Astronomy

Mar. 11, 2013 Rise Set
Actual Time 7:44 AM CDT 7:32 PM CDT
Civil Twilight 7:18 AM CDT 7:58 PM CDT
Nautical Twilight 6:48 AM CDT 8:28 PM CDT
Astronomical Twilight 6:18 AM CDT 8:58 PM CDT
Moon 7:19 AM CDT (3/11) 7:44 PM CDT (3/11)
Length of Visible Light 12h 39m
Length of Day
11h 47m
Waning Crescent, 0% of the Moon is Illuminated
Mar 11
Waning Crescent
Mar 11
New
Mar 19
First Quarter
Mar 27
Full
Apr 2
Last Quarter

Hourly Weather History & Observations

Time (CDT) Temp. Windchill Dew Point Humidity Pressure Visibility Wind Dir Wind Speed Gust Speed Precip Events Conditions
12:54 AM 30.0 °F 18.7 °F 21.9 °F 72% 30.06 in 10.0 mi NNW 16.1 mph - N/A   Overcast
1:54 AM 30.0 °F 20.5 °F 21.9 °F 72% 30.05 in 10.0 mi NNW 11.5 mph - N/A   Overcast
2:21 AM 28.4 °F 19.1 °F 21.2 °F 74% 30.01 in 10.0 mi NW 10.4 mph - N/A   Scattered Clouds
2:54 AM 28.0 °F 20.0 °F 21.9 °F 78% 30.04 in 10.0 mi NW 8.1 mph - N/A   Partly Cloudy
3:54 AM 28.9 °F 21.1 °F 23.0 °F 78% 30.03 in 10.0 mi NW 8.1 mph - N/A   Clear
4:54 AM 28.0 °F 16.5 °F 21.0 °F 75% 30.02 in 10.0 mi NW 15.0 mph 19.6 mph N/A   Clear
5:54 AM 26.1 °F 17.6 °F 19.9 °F 78% 30.02 in 10.0 mi WNW 8.1 mph - N/A   Clear
6:54 AM 25.0 °F 14.8 °F 19.9 °F 81% 30.04 in 10.0 mi WNW 10.4 mph - N/A   Clear
7:54 AM 24.1 °F 14.4 °F 19.0 °F 81% 30.05 in 10.0 mi NW 9.2 mph - N/A   Clear
8:54 AM 27.0 °F 16.7 °F 19.0 °F 72% 30.06 in 10.0 mi NW 11.5 mph - N/A   Clear
9:54 AM 30.0 °F 18.3 °F 19.0 °F 64% 30.07 in 10.0 mi NW 17.3 mph 25.3 mph N/A   Clear
10:54 AM 34.0 °F 24.6 °F 21.0 °F 59% 30.06 in 10.0 mi NW 13.8 mph 19.6 mph N/A   Clear
11:54 AM 37.0 °F 28.9 °F 19.0 °F 48% 30.06 in 10.0 mi NNW 12.7 mph - N/A   Clear
12:54 PM 41.0 °F 33.5 °F 18.0 °F 40% 30.04 in 10.0 mi NNW 13.8 mph 31.1 mph N/A   Clear
1:54 PM 44.1 °F 37.1 °F 14.0 °F 30% 30.04 in 10.0 mi NW 15.0 mph 21.9 mph N/A   Clear
2:54 PM 46.0 °F 39.9 °F 12.9 °F 26% 30.02 in 10.0 mi NW 13.8 mph - N/A   Clear
3:54 PM 46.9 °F - 15.1 °F 28% 30.01 in 10.0 mi West 10.4 mph - N/A   Clear
4:54 PM 48.9 °F - 17.1 °F 28% 30.00 in 10.0 mi WNW 8.1 mph - N/A   Clear
5:54 PM 48.0 °F - 19.9 °F 33% 30.00 in 10.0 mi West 5.8 mph - N/A   Clear
6:54 PM 46.9 °F - 21.9 °F 37% 30.00 in 10.0 mi West 3.5 mph - N/A   Clear
7:54 PM 41.0 °F 38.0 °F 26.1 °F 55% 30.02 in 10.0 mi Variable 4.6 mph - N/A   Clear
8:54 PM 41.0 °F - 25.0 °F 53% 30.04 in 10.0 mi Calm Calm - N/A   Clear
9:54 PM 36.0 °F - 27.0 °F 70% 30.05 in 10.0 mi Calm Calm - N/A   Clear
10:54 PM 39.0 °F 34.8 °F 23.0 °F 53% 30.03 in 10.0 mi East 5.8 mph - N/A   Clear
11:54 PM 37.9 °F - 24.1 °F 57% 30.05 in 10.0 mi Calm Calm - N/A   Mostly Cloudy